sat.trackr.live / text

‹ back to catalog

2023-091AL

NORAD 57200 · 2023-091AL

PAYLOAD ACTIVE UNKNOWN

§ Identity

Operator
Country
CIS
Launch date
2023-06-27
Launch site
VOSTO
Launch vehicle
Mass (kg)
RCS (m²)

External: N2YO · Heavens-Above · Gunter

§ Orbital elements

Epoch: 2026-05-25T04:18:29.316672Z

Period
93.25 min
Inclination
97.5063°
Eccentricity
0.0007623
Mean motion
15.44302849 rev/d
Perigee alt
428.2 km
Apogee alt
438.6 km
Semi-major
6,811.6 km
B*
6.1648e-4
RAAN
218.7593°
Arg perigee
134.1144°
Mean anomaly
226.0732°
Rev number
16,145

§ Raw data

2023-091AL1 57200U 23091AL  26145.17950598  .00028390  00000+0  61648-3 0  99902 57200  97.5063 218.7593 0007623 134.1144 226.0732 15.44302849161456

JSON: /api/v1/satellites/57200 · /tle

For live sub-satellite position, see the globe view (requires WebGL).

§ Visibility from observer

Set your observer location to see the next 7 days of passes ≥ 10°. The values pass through the URL so the page stays shareable.

No JS? Fill the form by hand. The geolocation button needs JavaScript.

§ Radio — SatNOGS DB

ModeDescriptionDownlinkUplink
FM Mode U - Beacon 435.720 MHz
FSK Mode U - FSK9k6 435.400 MHz

2 transmitters · refreshed weekly from db.satnogs.org